EW4725 Weather Reports


Display with metric or nautical units.
time (UTC)temp
F
wind
direction
speed
MPH
gust
MPH
rain 1hr
in
rain 24hr
in
rain mn
in
humidity
%
barometer
mb
20260507033616 62 305 3.0 6.0 0.00 0.00 0.00 81 1016.8
20260507033116 62 260 4.0 6.0 0.00 0.00 0.00 80 1016.7
20260507032616 62 283 6.0 10.0 0.00 0.00 0.00 80 1016.7
20260507032116 62 305 5.0 7.0 0.00 0.00 0.00 79 1016.5
20260507031616 63 305 6.0 10.0 0.00 0.00 0.00 78 1016.5
20260507031136 63 283 5.0 9.0 0.00 0.00 0.00 77 1016.5
20260507030636 63 305 4.0 6.0 0.00 0.00 0.00 75 1016.5
20260507030116 63 305 3.0 5.0 0.00 0.00 0.00 74 1016.4
20260507025616 63 283 4.0 6.0 0.00 0.00 0.00 73 1016.3
20260507025136 63 283 2.0 3.0 0.00 0.00 0.00 73 1016.3
20260507024616 63 283 6.0 11.0 0.00 0.00 0.00 73 1016.3
20260507024116 64 260 3.0 6.0 0.00 0.00 0.00 73 1016.2
20260507023616 64 283 6.0 8.0 0.00 0.00 0.00 72 1016.2
20260507023116 64 283 4.0 5.0 0.00 0.00 0.00 74 1016.2
20260507022616 64 260 5.0 7.0 0.00 0.00 0.00 74 1016.1
20260507022136 64 283 3.0 5.0 0.00 0.00 0.00 73 1016.1
20260507021616 65 283 4.0 6.0 0.00 0.00 0.00 73 1016.1
20260507021116 65 283 6.0 9.0 0.00 0.00 0.00 72 1016.0
20260507020616 65 283 5.0 7.0 0.00 0.00 0.00 72 1016.0
20260507020116 65 305 4.0 6.0 0.00 0.00 0.00 71 1016.0
20260507015616 65 283 6.0 10.0 0.00 0.00 0.00 71 1016.0
20260507015116 66 260 6.0 9.0 0.00 0.00 0.00 71 1015.9
20260507014616 66 283 5.0 8.0 0.00 0.00 0.00 69 1015.9
20260507014116 66 283 6.0 8.0 0.00 0.00 0.00 68 1015.8
20260507013616 67 283 6.0 13.0 0.00 0.00 0.00 68 1015.8
20260507013136 66 260 7.0 10.0 0.00 0.00 0.00 69 1015.7
20260507012616 66 260 6.0 8.0 0.00 0.00 0.00 68 1015.7
20260507012116 67 283 9.0 12.0 0.00 0.00 0.00 68 1015.7
20260507011616 67 283 8.0 11.0 0.00 0.00 0.00 67 1015.6
20260507011136 67 260 9.0 12.0 0.00 0.00 0.00 66 1015.6
20260507010615 67 260 9.0 12.0 0.00 0.00 0.00 66 1015.6
20260507010116 67 260 8.0 10.0 0.00 0.00 0.00 67 1015.6
20260507005616 67 260 7.0 11.0 0.00 0.00 0.00 67 1015.6
20260507005116 68 260 9.0 13.0 0.00 0.00 0.00 66 1015.6
20260507004616 68 260 7.0 11.0 0.00 0.00 0.00 67 1015.5
20260507004116 67 260 7.0 12.0 0.00 0.00 0.00 68 1015.6
20260507003616 67 260 8.0 12.0 0.00 0.00 0.00 67 1015.6
20260507003116 68 283 10.0 12.0 0.00 0.00 0.00 65 1015.6
20260507002616 68 283 9.0 11.0 0.00 0.00 0.00 66 1015.6
20260507002115 68 260 6.0 11.0 0.00 0.00 0.00 66 1015.6
20260507001615 68 260 6.0 10.0 0.00 0.00 0.00 65 1015.6
20260507001115 69 283 7.0 12.0 0.00 0.00 0.00 63 1015.5
20260507000636 70 283 5.0 7.0 0.00 0.00 0.00 62 1015.4
20260507000115 70 283 7.0 10.0 0.00 0.00 0.00 62 1015.5
20260506235616 70 283 6.0 8.0 0.00 0.00 0.00 61 1015.4
20260506235135 70 260 8.0 12.0 0.00 0.00 0.00 60 1015.5
20260506234615 70 260 5.0 7.0 0.00 0.00 0.00 62 1015.4
20260506234115 70 260 10.0 16.0 0.00 0.00 0.00 59 1015.4
20260506233616 70 283 8.0 15.0 0.00 0.00 0.00 60 1015.3
20260506233135 70 305 6.0 9.0 0.00 0.00 0.00 61 1015.4
20260506232616 70 283 7.0 13.0 0.00 0.00 0.00 60 1015.4
20260506232115 70 283 9.0 13.0 0.00 0.00 0.00 59 1015.4
20260506231615 70 260 7.0 11.0 0.00 0.00 0.00 59 1015.4
20260506231116 70 260 7.0 12.0 0.00 0.00 0.00 59 1015.5
20260506230616 70 260 10.0 15.0 0.00 0.00 0.00 57 1015.6
20260506230135 71 305 8.0 11.0 0.00 0.00 0.00 58 1015.6
20260506225615 71 260 7.0 14.0 0.00 0.00 0.00 57 1015.6
20260506225135 71 238 7.0 13.0 0.00 0.00 0.00 57 1015.7
20260506224616 71 283 7.0 9.0 0.00 0.00 0.00 57 1015.7
20260506224115 71 283 8.0 13.0 0.00 0.00 0.00 56 1015.9
20260506223616 72 283 7.0 11.0 0.00 0.00 0.00 55 1015.8
20260506223116 72 283 8.0 11.0 0.00 0.00 0.00 55 1016.0
20260506222615 72 283 6.0 9.0 0.00 0.00 0.00 56 1015.9
20260506222136 73 260 6.0 9.0 0.00 0.00 0.00 56 1016.0
20260506221615 73 283 7.0 11.0 0.00 0.00 0.00 56 1016.0
20260506221115 73 238 5.0 9.0 0.00 0.00 0.00 55 1016.1
20260506220616 74 260 5.0 10.0 0.00 0.00 0.00 53 1016.2
20260506220135 74 260 2.0 3.0 0.00 0.00 0.00 50 1016.3
20260506215615 74 260 7.0 11.0 0.00 0.00 0.00 49 1016.3
20260506215115 74 260 4.0 8.0 0.00 0.00 0.00 49 1016.4
20260506214615 74 260 2.0 5.0 0.00 0.00 0.00 50 1016.4
20260506214115 73 283 5.0 8.0 0.00 0.00 0.00 51 1016.4
20260506213636 73 193 5.0 8.0 0.00 0.00 0.00 52 1016.5
20260506213116 72 148 4.0 6.0 0.00 0.00 0.00 52 1016.6
20260506212615 72 148 5.0 8.0 0.00 0.00 0.00 52 1016.6
20260506212115 73 260 4.0 7.0 0.00 0.00 0.00 53 1016.7
20260506211615 72 193 3.0 7.0 0.00 0.00 0.00 53 1016.7
20260506211115 72 148 3.0 5.0 0.00 0.00 0.00 53 1016.8
20260506210615 73 148 4.0 6.0 0.00 0.00 0.00 53 1016.8
20260506210115 72 148 5.0 9.0 0.00 0.00 0.00 54 1016.8
20260506205615 72 148 4.0 6.0 0.00 0.00 0.00 53 1016.9
20260506205155 72 193 2.0 6.0 0.00 0.00 0.00 53 1017.0
20260506204616 72 238 2.0 6.0 0.00 0.00 0.00 53 1017.0
20260506204115 72 238 2.0 5.0 0.00 0.00 0.00 53 1017.1
20260506203615 72 148 4.0 7.0 0.00 0.00 0.00 55 1017.1
20260506203115 71 148 4.0 7.0 0.00 0.00 0.00 55 1017.2
20260506202615 72 170 3.0 6.0 0.00 0.00 0.00 54 1017.2
20260506202115 71 260 3.0 6.0 0.00 0.00 0.00 54 1017.2
20260506201615 71 148 4.0 7.0 0.00 0.00 0.00 56 1017.2
20260506201135 71 170 4.0 6.0 0.00 0.00 0.00 56 1017.3
20260506200615 71 215 5.0 9.0 0.00 0.00 0.00 57 1017.3
20260506200115 70 170 2.0 4.0 0.00 0.00 0.00 59 1017.4
20260506195615 71 148 7.0 10.0 0.00 0.00 0.00 57 1017.5
20260506195115 71 103 4.0 8.0 0.00 0.00 0.00 57 1017.5
20260506194615 70 125 3.0 5.0 0.00 0.00 0.00 59 1017.6
20260506194115 70 148 4.0 7.0 0.00 0.00 0.00 59 1017.6
20260506193617 70 148 5.0 11.0 0.00 0.00 0.00 58 1017.6
20260506193117 71 125 1.0 2.0 0.00 0.00 0.00 58 1017.6
20260506192637 70 0.0 1.0 0.00 0.00 0.00 59 1017.7
20260506192115 71 125 5.0 8.0 0.00 0.00 0.00 58 1017.8
20260506191617 70 305 1.0 2.0 0.00 0.00 0.00 59 1017.9
20260506191117 70 260 1.0 3.0 0.00 0.00 0.00 59 1018.0
20260506190617 70 148 4.0 8.0 0.00 0.00 0.00 59 1018.1
20260506190118 70 215 4.0 7.0 0.00 0.00 0.00 60 1018.0
20260506185615 71 148 4.0 7.0 0.00 0.00 0.00 59 1018.1
20260506185117 71 238 4.0 7.0 0.00 0.00 0.00 58 1018.1
20260506184617 71 125 2.0 5.0 0.00 0.00 0.00 59 1018.1
20260506184117 70 148 2.0 4.0 0.00 0.00 0.00 60 1018.2
20260506183637 69 238 2.0 3.0 0.00 0.00 0.00 60 1018.3
20260506183117 69 170 2.0 2.0 0.00 0.00 0.00 62 1018.3
20260506182637 69 125 5.0 9.0 0.00 0.00 0.00 62 1018.3
20260506182137 69 125 6.0 8.0 0.00 0.00 0.00 62 1018.3
20260506181617 69 170 2.0 5.0 0.00 0.00 0.00 63 1018.3
20260506181117 69 148 3.0 5.0 0.00 0.00 0.00 62 1018.3
20260506180637 69 148 4.0 5.0 0.00 0.00 0.00 61 1018.3
20260506180117 68 148 2.0 4.0 0.00 0.00 0.00 63 1018.4
20260506175617 68 148 1.0 2.0 0.00 0.00 0.00 64 1018.3
20260506175117 67 148 5.0 7.0 0.00 0.00 0.00 63 1018.3
20260506174617 67 125 5.0 7.0 0.00 0.00 0.00 62 1018.4
20260506174117 68 125 3.0 5.0 0.00 0.00 0.00 63 1018.4
20260506173617 68 0.0 1.0 0.00 0.00 0.00 63 1018.4
20260506173137 68 103 3.0 9.0 0.00 0.00 0.00 62 1018.4
20260506172617 68 125 3.0 4.0 0.00 0.00 0.00 62 1018.3
20260506172117 69 125 3.0 4.0 0.00 0.00 0.00 61 1018.3
20260506171617 69 215 1.0 4.0 0.00 0.00 0.00 61 1018.4
20260506171117 68 305 1.0 2.0 0.00 0.00 0.00 62 1018.4
20260506170637 68 0.0 2.0 0.00 0.00 0.00 63 1018.4
20260506170117 68 148 3.0 6.0 0.00 0.00 0.00 63 1018.4
20260506165617 68 350 2.0 3.0 0.00 0.00 0.00 63 1018.4
20260506165137 67 215 1.0 2.0 0.00 0.00 0.00 64 1018.3
20260506164617 66 103 3.0 4.0 0.00 0.00 0.00 64 1018.3
20260506164117 66 170 2.0 4.0 0.00 0.00 0.00 65 1018.3
20260506163617 66 58 4.0 5.0 0.00 0.00 0.00 65 1018.4
20260506163117 66 125 2.0 3.0 0.00 0.00 0.00 68 1018.4
20260506162617 66 80 3.0 5.0 0.00 0.00 0.00 68 1018.4
20260506162117 65 58 2.0 3.0 0.00 0.00 0.00 69 1018.3
20260506161617 65 58 4.0 6.0 0.00 0.00 0.00 70 1018.3
20260506161137 64 80 3.0 5.0 0.00 0.00 0.00 71 1018.3
20260506160617 64 103 1.0 2.0 0.00 0.00 0.00 73 1018.3
20260506160117 63 125 4.0 5.0 0.00 0.00 0.00 73 1018.4
20260506155617 64 103 5.0 8.0 0.00 0.00 0.00 73 1018.4
20260506155137 63 103 3.0 8.0 0.00 0.00 0.00 74 1018.4
20260506154617 63 125 2.0 5.0 0.00 0.00 0.00 74 1018.4
20260506154117 63 125 3.0 4.0 0.00 0.00 0.00 76 1018.4
20260506153617 63 125 2.0 3.0 0.00 0.00 0.00 76 1018.4
20260506153117 63 125 3.0 4.0 0.00 0.00 0.00 75 1018.4
20260506152617 63 125 1.0 2.0 0.00 0.00 0.00 77 1018.5
20260506152116 62 125 3.0 4.0 0.00 0.00 0.00 77 1018.5
20260506151616 62 125 2.0 3.0 0.00 0.00 0.00 78 1018.5
20260506151117 62 125 3.0 5.0 0.00 0.00 0.00 78 1018.5
20260506150617 62 125 1.0 3.0 0.00 0.00 0.00 78 1018.5
20260506150117 61 148 1.0 2.0 0.00 0.00 0.00 78 1018.5
20260506145616 61 148 2.0 3.0 0.00 0.00 0.00 79 1018.5
20260506145157 61 125 1.0 2.0 0.00 0.00 0.00 80 1018.5
20260506144616 60 148 1.0 4.0 0.00 0.00 0.00 80 1018.5
20260506144116 60 125 1.0 2.0 0.00 0.00 0.00 81 1018.4
20260506143617 59 148 2.0 3.0 0.00 0.00 0.00 80 1018.4
20260506143137 59 125 1.0 2.0 0.00 0.00 0.00 81 1018.4
20260506142617 59 125 2.0 4.0 0.00 0.00 0.00 81 1018.4
20260506142116 58 148 2.0 4.0 0.00 0.00 0.00 81 1018.3
20260506141637 58 148 2.0 2.0 0.00 0.00 0.00 83 1018.2
20260506141116 57 125 2.0 2.0 0.00 0.00 0.00 84 1018.2
20260506140616 57 148 2.0 4.0 0.00 0.00 0.00 85 1018.2
20260506140217 56 148 2.0 2.0 0.00 0.00 0.00 86 1018.2
20260506135617 56 148 1.0 3.0 0.00 0.00 0.00 86 1018.2
20260506135136 56 148 1.0 1.0 0.00 0.00 0.00 87 1018.1
20260506134617 56 148 1.0 1.0 0.00 0.00 0.00 87 1018.2
20260506134117 55 0.0 0.0 0.00 0.00 0.00 88 1018.1
20260506133616 55 0.0 1.0 0.00 0.00 0.00 89 1018.1
20260506133136 55 0.0 1.0 0.00 0.00 0.00 90 1018.0
20260506132617 55 0.0 0.0 0.00 0.00 0.00 90 1018.0
20260506132136 55 0.0 0.0 0.00 0.00 0.00 90 1017.9
20260506131617 55 0.0 1.0 0.00 0.00 0.00 90 1017.8
20260506131116 55 0.0 1.0 0.00 0.00 0.00 90 1017.8
20260506130617 55 0.0 0.0 0.00 0.00 0.00 90 1017.7
20260506130117 55 0.0 0.0 0.00 0.00 0.00 90 1017.7
20260506125617 55 0.0 1.0 0.00 0.00 0.00 91 1017.7
20260506125116 55 0.0 0.0 0.00 0.00 0.00 91 1017.6
20260506124616 55 148 1.0 2.0 0.00 0.00 0.00 91 1017.5
20260506124116 55 148 1.0 2.0 0.00 0.00 0.00 91 1017.5
20260506123616 55 148 2.0 3.0 0.00 0.00 0.00 91 1017.5
20260506123116 55 0.0 1.0 0.00 0.00 0.00 91 1017.4
20260506122616 55 148 1.0 1.0 0.00 0.00 0.00 91 1017.4
20260506122116 55 148 1.0 2.0 0.00 0.00 0.00 91 1017.3
20260506121657 55 148 1.0 1.0 0.00 0.00 0.00 91 1017.3
20260506121156 55 148 2.0 2.0 0.00 0.00 0.00 91 1017.4
20260506120616 55 148 1.0 2.0 0.00 0.00 0.00 91 1017.4
20260506120116 55 148 2.0 4.0 0.00 0.00 0.00 91 1017.3
20260506115617 55 148 2.0 2.0 0.00 0.00 0.00 91 1017.3
20260506115136 55 148 1.0 2.0 0.00 0.00 0.00 91 1017.2
20260506114616 55 148 1.0 2.0 0.00 0.00 0.00 91 1017.2
20260506114116 55 0.0 0.0 0.00 0.00 0.00 92 1017.2
20260506113616 55 0.0 0.0 0.00 0.00 0.00 91 1017.1
20260506113116 55 0.0 0.0 0.00 0.00 0.00 91 1017.2
20260506112616 55 0.0 0.0 0.00 0.00 0.00 91 1017.0
20260506112116 55 0.0 0.0 0.00 0.00 0.00 91 1017.0
20260506111616 55 0.0 0.0 0.00 0.00 0.00 91 1017.0
20260506111117 55 0.0 0.0 0.00 0.00 0.00 91 1017.1
20260506110616 55 0.0 0.0 0.00 0.00 0.00 91 1017.0
20260506110116 55 0.0 0.0 0.00 0.00 0.00 92 1017.1
20260506105616 55 0.0 1.0 0.00 0.00 0.00 92 1017.1
20260506105116 55 148 1.0 1.0 0.00 0.00 0.00 92 1017.1
20260506104616 55 148 1.0 1.0 0.00 0.00 0.00 92 1017.1
20260506104116 55 0.0 0.0 0.00 0.00 0.00 92 1017.1
20260506103616 54 0.0 0.0 0.00 0.02 0.00 92 1017.1
20260506103116 54 0.0 0.0 0.00 0.02 0.00 91 1017.1
20260506102636 54 0.0 0.0 0.00 0.02 0.00 91 1017.1
20260506102116 55 0.0 0.0 0.00 0.02 0.00 91 1017.1
20260506101616 55 0.0 0.0 0.00 0.02 0.00 91 1017.1
20260506101116 55 0.0 0.0 0.00 0.02 0.00 92 1017.1
20260506100616 55 0.0 0.0 0.00 0.02 0.00 92 1017.0
20260506100116 54 0.0 0.0 0.00 0.02 0.00 91 1017.1
20260506095616 55 0.0 0.0 0.00 0.02 0.00 91 1017.1
20260506095116 55 0.0 0.0 0.00 0.02 0.00 91 1017.2
20260506094616 54 0.0 0.0 0.00 0.02 0.00 91 1017.1
20260506094116 54 0.0 0.0 0.00 0.03 0.00 90 1017.2
20260506093616 55 0.0 0.0 0.00 0.04 0.00 90 1017.1
20260506093217 54 0.0 0.0 0.00 0.04 0.00 89 1017.1
20260506092616 55 0.0 0.0 0.00 0.04 0.00 89 1017.2
20260506092116 55 0.0 0.0 0.00 0.04 0.00 88 1017.2
20260506091616 55 0.0 0.0 0.00 0.04 0.00 88 1017.2
20260506091116 56 0.0 0.0 0.00 0.04 0.00 88 1017.3
20260506090616 56 0.0 0.0 0.00 0.04 0.00 88 1017.3
20260506090116 56 0.0 0.0 0.00 0.04 0.00 89 1017.3
20260506085616 56 0.0 0.0 0.00 0.04 0.00 88 1017.3
20260506085116 56 0.0 0.0 0.00 0.04 0.00 87 1017.3
20260506084616 56 0.0 0.0 0.00 0.04 0.00 86 1017.4
20260506084116 57 0.0 0.0 0.00 0.04 0.00 85 1017.5
20260506083616 57 0.0 0.0 0.00 0.04 0.00 86 1017.5
20260506083116 57 0.0 0.0 0.00 0.04 0.00 86 1017.4
20260506082636 57 0.0 1.0 0.00 0.04 0.00 86 1017.5
20260506082116 58 0.0 0.0 0.00 0.04 0.00 85 1017.5
20260506081616 58 0.0 1.0 0.00 0.04 0.00 85 1017.4
20260506081116 58 0.0 0.0 0.00 0.04 0.00 85 1017.6
20260506080616 58 0.0 1.0 0.00 0.04 0.00 85 1017.5
20260506080116 58 0.0 1.0 0.00 0.04 0.00 85 1017.5
20260506073116 58 0.0 0.0 0.00 0.08 0.00 84 1017.5
20260506072616 59 0.0 1.0 0.00 0.08 0.00 84 1017.5
20260506072116 59 148 1.0 1.0 0.00 0.08 0.00 83 1017.5
20260506071636 59 148 1.0 2.0 0.00 0.09 0.00 83 1017.4
20260506071136 59 148 1.0 2.0 0.00 0.09 0.00 83 1017.4
20260506070616 59 148 1.0 1.0 0.00 0.09 0.00 83 1017.3
20260506070116 59 148 1.0 1.0 0.00 0.09 0.00 83 1017.3
20260506062116 57 125 1.0 1.0 0.00 0.21 0.10 84 1017.1
20260506061616 57 0.0 0.0 0.00 0.23 0.10 84 1017.1
20260506061116 57 0.0 0.0 0.00 0.24 0.10 82 1017.1
20260506060616 57 0.0 0.0 0.00 0.26 0.10 82 1017.0
20260506060116 58 0.0 0.0 0.00 0.31 0.10 80 1016.9
20260506051116 58 0.0 0.0 0.00 0.38 0.10 80 1016.6
20260506050616 58 0.0 0.0 0.00 0.38 0.10 81 1016.6
20260506050156 58 0.0 0.0 0.00 0.38 0.10 82 1016.5
20260506045116 58 0.0 0.0 0.00 0.38 0.10 80 1016.3
20260506044616 59 0.0 0.0 0.00 0.38 0.10 81 1016.3
20260506044116 59 0.0 0.0 0.00 0.38 0.10 80 1016.2
20260506043636 59 0.0 0.0 0.00 0.38 0.10 78 1016.2
20260506043116 59 0.0 0.0 0.00 0.38 0.10 79 1016.2
20260506042616 60 0.0 0.0 0.00 0.38 0.10 78 1016.2
20260506042116 60 0.0 0.0 0.00 0.38 0.10 78 1016.1
20260506041616 60 0.0 0.0 0.00 0.38 0.10 78 1016.1
20260506041116 60 0.0 0.0 0.00 0.38 0.10 78 1016.0
20260506040616 60 0.0 0.0 0.00 0.38 0.10 77 1015.9
20260506040116 60 0.0 0.0 0.00 0.38 0.10 77 1015.9
20260506035616 60 0.0 0.0 0.00 0.38 0.10 76 1015.8
20260506035116 61 0.0 0.0 0.00 0.38 0.10 76 1015.6
20260506034616 61 0.0 0.0 0.00 0.38 0.10 75 1015.6
20260506034116 61 0.0 1.0 0.00 0.38 0.10 74 1015.5